[[{"header":{"parameterUnit":"m.s-1","parameterCategory":1,"la1":30.2991,"la2":30.254,"lo1":-89.0895,"lo2":-89.0444,"dy":0.0017,"dx":0.0017,"nx":28,"ny":28,"refTime":"2024-07-07T09:00:00:Z","depth":0,"parameterNumber":2,"parameterNumberName":"U-component_of_WINDS"},"data":[0,0,0,0,0,0,0,0,0,0,0,0,0,0,0,0,0,0,0,0,0,0,0,0,0,0,0,0,0,0,0,0,0,0,0,0,0,0,0,0,0,0,0,0,0,0,0,0,0,0,0,0,0,0,0,0,0,0,-0.5849,-0.5849,0,-0.5816,-0.5815,-0.5815,-0.5789,-0.5789,-0.5789,-0.5789,-0.5756,-0.5755,-0.5755,0,0,0,0,0,0,0,0,0,0,0,0,0,-0.5893,-0.5892,-0.5849,-0.5849,-0.5848,-0.5816,-0.5815,-0.5815,-0.5789,-0.5789,-0.5789,-0.5788,-0.5756,-0.5756,-0.5755,0,0,0,0,0,0,0,0,0,0,0,0,0,-0.5868,-0.5892,-0.5849,-0.5832,-0.583,-0.5816,-0.5815,-0.5815,-0.5789,-0.5789,-0.5789,-0.5788,-0.5757,-0.5756,-0.5755,-0.5756,0,0,-0.5752,-0.5751,0,0,0,0,0,0,0,0,-0.587,-0.5867,-0.5835,-0.5833,-0.5831,-0.5806,-0.5819,-0.5795,-0.5789,-0.5805,-0.5789,-0.5788,-0.5773,-0.5771,-0.5765,-0.5755,-0.5753,-0.5752,-0.5751,-0.5751,-0.575,0,0,0,0,0,0,0,-0.5872,-0.5868,-0.5836,-0.5834,-0.5832,-0.5826,-0.5822,-0.5814,-0.5792,-0.5803,-0.5801,-0.5798,-0.5772,-0.5766,-0.5764,-0.5753,-0.5752,-0.5751,-0.575,-0.575,-0.5743,-0.5743,0,0,0,0,0,0,-0.5876,-0.587,-0.5837,-0.5835,-0.585,-0.5826,-0.5821,-0.5814,-0.5791,-0.5788,-0.5798,-0.5797,-0.5768,-0.5766,-0.5763,-0.5764,-0.5751,-0.575,-0.5749,-0.5742,-0.5743,-0.5743,0,0,0,0,0,0,-0.5877,-0.5873,-0.5838,-0.5852,-0.5847,-0.5825,-0.5818,-0.5814,-0.5808,-0.5787,-0.5783,-0.5796,-0.5768,-0.5765,-0.5758,-0.5763,-0.5749,-0.5749,-0.5742,-0.5742,-0.5743,-0.5766,0,0,0,0,0,0,-0.5878,-0.5874,-0.5873,-0.5852,-0.5846,-0.5833,-0.5818,-0.5814,-0.5807,-0.5804,-0.5785,-0.5781,-0.5767,-0.576,-0.5757,-0.5761,-0.5748,-0.5741,-0.5742,-0.5743,-0.5764,-0.5767,-0.5769,0,0,0,0,0,-0.588,-0.5881,-0.5873,-0.587,-0.5845,-0.5834,-0.583,-0.5814,-0.5807,-0.5807,-0.5794,-0.5782,-0.5762,-0.5759,-0.5756,-0.576,-0.5741,-0.5742,-0.5743,-0.5763,-0.5766,-0.5769,0,0,0,0,0,0,-0.5904,-0.5878,-0.5869,-0.5864,-0.5851,-0.5829,-0.5829,-0.5817,-0.5807,-0.5805,-0.5786,-0.5782,-0.5778,-0.5768,-0.5765,-0.5761,-0.575,-0.5751,-0.5767,-0.577,-0.5772,-0.5775,-0.5747,0,0,0,0,0,-0.5909,-0.5901,-0.5879,-0.5876,-0.587,-0.5851,-0.5845,-0.5833,-0.5819,-0.5814,-0.58,-0.5788,-0.5779,-0.5774,-0.5765,-0.5763,-0.5759,-0.5764,-0.5766,-0.5768,-0.5769,-0.5768,-0.577,-0.5746,-0.5746,-0.5746,0,0,-0.5919,-0.5904,-0.59,-0.5881,-0.5869,-0.5862,-0.5846,-0.5839,-0.5834,-0.5813,-0.5806,-0.5796,-0.5781,-0.5777,-0.5775,-0.5769,-0.5775,-0.5769,-0.5771,-0.577,-0.5769,-0.5771,-0.5773,-0.5746,-0.5746,-0.5746,0,0,-0.5933,-0.592,-0.5917,-0.5906,-0.5889,-0.5876,-0.5876,-0.5856,-0.5848,-0.584,-0.5825,-0.5819,-0.5804,-0.5794,-0.5787,-0.5798,-0.5787,-0.5796,-0.5808,-0.5807,-0.5809,-0.5811,-0.5816,-0.5817,-0.5796,-0.5796,-0.5796,0,-0.5948,-0.5936,-0.5917,-0.5911,-0.5903,-0.5884,-0.5881,-0.5871,-0.5853,-0.5848,-0.5842,-0.5823,-0.5812,-0.5806,-0.5808,-0.5803,-0.5802,-0.5798,-0.581,-0.5812,-0.5813,-0.5817,-0.5819,-0.5798,-0.5797,-0.5797,-0.5797,0,-0.5955,-0.5947,-0.5946,-0.5928,-0.592,-0.5916,-0.5898,-0.5892,-0.5881,-0.5869,-0.5863,-0.5848,-0.5836,-0.5834,-0.5823,-0.5826,-0.5823,-0.5814,-0.5803,-0.5817,-0.5821,-0.5822,-0.5799,-0.5799,-0.5799,-0.5798,0,0,-0.5984,-0.5955,-0.5956,-0.5948,-0.5928,-0.5921,-0.5916,-0.5904,-0.59,-0.5888,-0.5884,-0.5872,-0.5863,-0.5855,-0.5844,-0.5843,-0.5854,-0.5834,-0.5833,-0.5839,-0.5857,-0.5865,-0.5867,-0.5846,-0.5846,-0.5846,-0.5859,0,-0.5996,-0.5985,-0.5968,-0.5963,-0.5956,-0.5938,-0.5933,-0.5921,-0.591,-0.5903,-0.5891,-0.5883,-0.5871,-0.5867,-0.5865,-0.5853,-0.5857,-0.5851,-0.5843,-0.5843,-0.5848,-0.5869,-0.5876,-0.5889,-0.586,-0.586,-0.586,0,-0.6008,-0.5996,-0.5991,-0.5972,-0.5968,-0.5964,-0.5952,-0.5945,-0.5931,-0.5923,-0.5915,-0.5902,-0.5896,-0.5886,-0.5879,-0.5876,-0.5871,-0.5864,-0.5864,-0.5863,-0.5853,-0.5869,-0.5892,-0.5894,-0.5862,-0.5862,-0.5862,0,-0.603,-0.6014,-0.6008,-0.6002,-0.5979,-0.5977,-0.5968,-0.5954,-0.5947,-0.5937,-0.5933,-0.5922,-0.5916,-0.5908,-0.5893,-0.5887,-0.5888,-0.5876,-0.5881,-0.5882,-0.5883,-0.5883,-0.5906,-0.5879,-0.5879,-0.5879,-0.5879,0,-0.6046,-0.6043,-0.6018,-0.6015,-0.6012,-0.5993,-0.5991,-0.598,-0.5967,-0.5962,-0.5945,-0.5941,-0.5921,-0.5914,-0.5903,-0.5899,-0.5896,-0.589,-0.5887,-0.5892,-0.5893,-0.5889,-0.5888,-0.5879,-0.5879,-0.5879,-0.5879,0,-0.6071,-0.6054,-0.6047,-0.6026,-0.6021,-0.6019,-0.6002,-0.5999,-0.5986,-0.598,-0.5978,-0.5959,-0.595,-0.5934,-0.5921,-0.5914,-0.5913,-0.5907,-0.5917,-0.5916,-0.5922,-0.5922,-0.5944,-0.5947,-0.5917,-0.5918,-0.5918,0,-0.6082,-0.608,-0.6058,-0.6054,-0.6045,-0.6037,-0.6031,-0.6012,-0.6006,-0.599,-0.5989,-0.5979,-0.597,-0.5958,-0.5944,-0.5934,-0.5928,-0.5937,-0.5927,-0.5932,-0.5929,-0.593,-0.593,-0.5939,-0.594,-0.594,-0.594,0,-0.6104,-0.6096,-0.6086,-0.6075,-0.6067,-0.6057,-0.6046,-0.6043,-0.6022,-0.6017,-0.6008,-0.6001,-0.5988,-0.5978,-0.5967,-0.5958,-0.5946,-0.5944,-0.5944,-0.595,-0.5956,-0.5953,-0.5924,-0.5943,-0.5943,-0.5943,-0.5943,-0.5943,-0.6123,-0.612,-0.6105,-0.6095,-0.6085,-0.6075,-0.6071,-0.6058,-0.605,-0.6038,-0.6028,-0.602,-0.6006,-0.5989,-0.5981,-0.5975,-0.5969,-0.5971,-0.5971,-0.5972,-0.5974,-0.5957,-0.5973,-0.5973,-0.5973,-0.5973,-0.5973,0,-0.6145,-0.6134,-0.6125,-0.611,-0.6103,-0.6092,-0.6079,-0.6074,-0.6067,-0.6056,-0.6047,-0.6037,-0.6028,-0.6013,-0.6003,-0.6001,-0.5996,-0.5999,-0.6,-0.5998,-0.5979,-0.598,-0.6004,-0.6004,-0.6004,-0.6004,-0.6004,-0.6004,-0.6155,-0.615,-0.614,-0.613,-0.6119,-0.6111,-0.6105,-0.6096,-0.6087,-0.6076,-0.6068,-0.6058,-0.6045,-0.6034,-0.6026,-0.6022,-0.6019,-0.6025,-0.6019,-0.6002,-0.5999,-0.5996,-0.5997,-0.6024,-0.6024,-0.6038,-0.6038,-0.6038]},{"header":{"parameterUnit":"m.s-1","parameterCategory":1,"la1":30.2991,"la2":30.254,"lo1":-89.0895,"lo2":-89.0444,"dy":0.0017,"dx":0.0017,"nx":28,"ny":28,"refTime":"2024-07-07T09:00:00:Z","depth":0,"parameterNumber":3,"parameterNumberName":"V-component_of_WINDS"},"data":[0,0,0,0,0,0,0,0,0,0,0,0,0,0,0,0,0,0,0,0,0,0,0,0,0,0,0,0,0,0,0,0,0,0,0,0,0,0,0,0,0,0,0,0,0,0,0,0,0,0,0,0,0,0,0,0,0,0,5.3549,5.3549,0,5.354,5.354,5.354,5.3452,5.3449,5.3447,5.3445,5.3437,5.3439,5.344,0,0,0,0,0,0,0,0,0,0,0,0,0,5.349,5.3491,5.3549,5.3549,5.3549,5.354,5.354,5.354,5.3452,5.3449,5.3447,5.3444,5.3436,5.3438,5.3441,0,0,0,0,0,0,0,0,0,0,0,0,0,5.3502,5.3492,5.3549,5.3504,5.35,5.354,5.354,5.354,5.3452,5.3449,5.3446,5.3443,5.3435,5.3438,5.3441,5.3524,0,0,5.3449,5.345,0,0,0,0,0,0,0,0,5.3501,5.3504,5.3511,5.3507,5.3502,5.3493,5.3516,5.3535,5.3453,5.347,5.3445,5.3441,5.3458,5.3459,5.3465,5.3524,5.3523,5.345,5.3451,5.3452,5.3453,0,0,0,0,0,0,0,5.35,5.3504,5.3545,5.3511,5.3506,5.3484,5.3482,5.3519,5.3483,5.3469,5.3462,5.3462,5.3455,5.3462,5.3464,5.3523,5.3449,5.3452,5.3454,5.3455,5.3648,5.3651,0,0,0,0,0,0,5.3506,5.3504,5.3546,5.3545,5.3494,5.3488,5.3485,5.35,5.3482,5.3477,5.3465,5.3458,5.3459,5.3461,5.3463,5.3558,5.3452,5.3455,5.3457,5.3645,5.3649,5.3653,0,0,0,0,0,0,5.3505,5.351,5.3546,5.3523,5.3525,5.3492,5.3509,5.3501,5.3508,5.348,5.3473,5.3479,5.3457,5.3459,5.3509,5.3556,5.3456,5.3459,5.364,5.3646,5.3651,5.3749,0,0,0,0,0,0,5.3504,5.3511,5.3542,5.3524,5.3527,5.3592,5.3512,5.3503,5.3513,5.3504,5.3491,5.3485,5.3454,5.3505,5.3512,5.3558,5.3461,5.3636,5.3643,5.3649,5.3741,5.3757,5.377,0,0,0,0,0,5.3502,5.3571,5.3544,5.355,5.3566,5.3595,5.3597,5.356,5.3517,5.3548,5.353,5.3486,5.3551,5.3511,5.3518,5.3566,5.3633,5.3641,5.3649,5.3735,5.3754,5.377,0,0,0,0,0,0,5.3596,5.3568,5.3538,5.3603,5.3602,5.358,5.3618,5.3581,5.3593,5.3584,5.3537,5.3535,5.3592,5.3584,5.3541,5.3644,5.3584,5.3593,5.3647,5.3665,5.3679,5.3679,5.3463,0,0,0,0,0,5.3624,5.3651,5.3624,5.3685,5.3686,5.3652,5.3664,5.3635,5.3632,5.3632,5.3617,5.3617,5.3636,5.365,5.3667,5.374,5.3735,5.3776,5.3791,5.3803,5.3811,5.3847,5.3865,5.3678,5.3678,5.3678,0,0,5.3683,5.3671,5.369,5.3703,5.3699,5.3727,5.3653,5.3686,5.3706,5.3637,5.3682,5.3672,5.3668,5.3729,5.3755,5.3724,5.3862,5.3813,5.3822,5.3824,5.3857,5.3875,5.389,5.3684,5.3683,5.3682,0,0,5.3804,5.3798,5.3846,5.3844,5.3838,5.3815,5.3827,5.3811,5.3801,5.3845,5.3794,5.3817,5.3853,5.3852,5.3856,5.3975,5.3935,5.3982,5.4057,5.4093,5.4108,5.412,5.4161,5.4177,5.3991,5.3991,5.3991,0,5.3878,5.3918,5.3876,5.3912,5.3918,5.3857,5.3905,5.3904,5.3905,5.3911,5.3876,5.3918,5.3912,5.3971,5.4,5.4006,5.4017,5.3983,5.4109,5.4121,5.4132,5.4171,5.4187,5.3997,5.3996,5.3996,5.3995,0,5.4008,5.4036,5.4076,5.4077,5.4088,5.413,5.4094,5.4111,5.4081,5.4062,5.4107,5.4097,5.411,5.4122,5.4094,5.4177,5.4158,5.4117,5.4055,5.4156,5.4192,5.4206,5.4005,5.4003,5.4001,5.4,0,0,5.4188,5.4164,5.4179,5.4178,5.4167,5.4188,5.4227,5.4239,5.4253,5.4256,5.4286,5.4317,5.4279,5.4284,5.4255,5.4286,5.4379,5.4241,5.424,5.4266,5.4469,5.4498,5.4516,5.4353,5.4356,5.4358,5.4468,0,5.4303,5.4367,5.433,5.44,5.4424,5.4366,5.4399,5.4396,5.4379,5.4398,5.4379,5.4401,5.435,5.4352,5.4381,5.4362,5.4419,5.4354,5.438,5.4382,5.4382,5.4535,5.4567,5.4671,5.4482,5.4484,5.4486,0,5.4446,5.4453,5.4524,5.4506,5.4515,5.4546,5.4553,5.4572,5.4567,5.4552,5.4557,5.452,5.4556,5.4496,5.4545,5.4502,5.451,5.4503,5.4506,5.4506,5.4439,5.4537,5.4704,5.4719,5.4508,5.4506,5.4505,0,5.4568,5.4595,5.4641,5.4642,5.4623,5.4646,5.4639,5.463,5.4639,5.4646,5.4651,5.4662,5.4668,5.4678,5.4645,5.4604,5.4698,5.4635,5.4686,5.4687,5.4707,5.4706,5.4876,5.4716,5.4716,5.4715,5.4715,0,5.4699,5.4745,5.4695,5.4723,5.4772,5.473,5.4779,5.4766,5.4759,5.4783,5.4734,5.4758,5.4714,5.4733,5.4708,5.4751,5.4755,5.4744,5.4736,5.4747,5.4748,5.4751,5.4742,5.472,5.4719,5.4718,5.4717,0,5.4843,5.4812,5.4857,5.4835,5.4831,5.4868,5.4848,5.4873,5.4853,5.4884,5.4889,5.4857,5.4877,5.4845,5.4863,5.4845,5.4905,5.4887,5.4907,5.4901,5.4953,5.4948,5.5129,5.515,5.4979,5.498,5.4982,0,5.4928,5.4962,5.4942,5.4954,5.495,5.4971,5.4979,5.4939,5.4949,5.4945,5.497,5.4986,5.4997,5.5032,5.501,5.5023,5.5004,5.5066,5.5005,5.5015,5.5003,5.5,5.5003,5.5079,5.5081,5.5083,5.5084,0,5.5082,5.5064,5.5078,5.5086,5.5097,5.5102,5.5103,5.5116,5.5073,5.5088,5.5107,5.5115,5.5131,5.5147,5.5154,5.5147,5.5109,5.5104,5.5115,5.5127,5.5136,5.513,5.4939,5.5099,5.5098,5.5097,5.5096,5.5095,5.5198,5.5224,5.5214,5.523,5.5227,5.5228,5.525,5.5232,5.5247,5.5256,5.5231,5.5257,5.5249,5.5254,5.5252,5.5271,5.5243,5.5261,5.5265,5.527,5.5278,5.5134,5.5272,5.5272,5.5271,5.5271,5.5271,0,5.5348,5.5338,5.5353,5.5355,5.5368,5.533,5.5329,5.5342,5.5364,5.5361,5.5371,5.5393,5.5408,5.5388,5.5399,5.5418,5.5401,5.5423,5.542,5.5419,5.5302,5.529,5.5437,5.5437,5.5436,5.5436,5.5436,5.5436,5.5427,5.5468,5.545,5.5488,5.5478,5.5502,5.5504,5.5505,5.5502,5.5528,5.554,5.5526,5.5515,5.5525,5.5537,5.5531,5.5537,5.5565,5.5552,5.5444,5.5427,5.5412,5.54,5.5567,5.5567,5.5667,5.5667,5.5668]}]]